This is the latest recevied weather packets stored in our database for station/object KC2GYU. If no packets are shown the sender has not sent any weather packets the latest 10 day(s).
| Time | Temp. | Humidity | Pressure | Rain* | Wind** | Luminosity | Snow |
|---|---|---|---|---|---|---|---|
| 1777895716 | 12.22° C | 84% | 1016.6 hPa | 0 mm | - | 174 W/m² | - |
| 1777895412 | 12.22° C | 83% | 1016.6 hPa | 0 mm | - | 52 W/m² | - |
| 1777895110 | 12.22° C | 83% | 1016.9 hPa | 0 mm | - | 55 W/m² | - |
| 1777894807 | 12.22° C | 83% | 1016.8 hPa | 0 mm | - | 66 W/m² | - |
| 1777894504 | 12.22° C | 83% | 1016.7 hPa | 0 mm | - | 75 W/m² | - |
| 1777894201 | 12.22° C | 83% | 1016.7 hPa | 0 mm | - | 86 W/m² | - |
| 1777893898 | 11.67° C | 84% | 1016.7 hPa | 0 mm | - | 87 W/m² | - |
| 1777893594 | 11.67° C | 84% | 1016.6 hPa | 0 mm | - | 81 W/m² | - |
| 1777893291 | 11.67° C | 84% | 1016.9 hPa | 0 mm | - | 67 W/m² | - |
| 1777892987 | 11.11° C | 83% | 1017 hPa | 0 mm | - | 58 W/m² | - |
| 1777892684 | 11.11° C | 84% | 1016.9 hPa | 0 mm | - | 52 W/m² | - |
| 1777892380 | 10.56° C | 84% | 1016.9 hPa | 0 mm | - | 52 W/m² | - |
| 1777892076 | 10.56° C | 84% | 1017.1 hPa | 0 mm | - | 41 W/m² | - |
| 1777891774 | 10.56° C | 84% | 1016.8 hPa | 0 mm | - | 35 W/m² | - |
| 1777891470 | 10° C | 84% | 1017.1 hPa | 0 mm | - | 35 W/m² | - |
| 1777891166 | 10° C | 83% | 1016.9 hPa | 0 mm | - | 33 W/m² | - |
| 1777890860 | 9.44° C | 83% | 1016.9 hPa | 0 mm | - | 30 W/m² | - |
| 1777890557 | 9.44° C | 83% | 1016.8 hPa | 0 mm | - | 26 W/m² | - |
| 1777890252 | 9.44° C | 83% | 1016.8 hPa | 0 mm | - | 20 W/m² | - |
| 1777889948 | 8.89° C | 83% | 1016.9 hPa | 0 mm | - | 15 W/m² | - |
| 1777889647 | 8.89° C | 83% | 1017 hPa | 0 mm | - | 10 W/m² | - |
| 1777889343 | 8.89° C | 83% | 1016.9 hPa | 0 mm | - | 6 W/m² | - |
| 1777889041 | 8.89° C | 83% | 1016.9 hPa | 0 mm | - | 4 W/m² | - |
| 1777888738 | 8.89° C | 83% | 1016.9 hPa | 0 mm | - | 0 W/m² | - |
| 1777888434 | 8.33° C | 84% | 1016.9 hPa | 0 mm | - | 0 W/m² | - |
* Rain latest hour (hover to see other rain measurements)
** Current wind speed in m/s (hover to see current wind gust speed)